Location: Bellflower
(33.8817°N, 118.1170°W)
Time: 14:04:45
(UTC+00:00)

METEOR-M - Pass Details

Date: 23 November 2020
Orbit: 817 x 818 km, 98.5° (Epoch: 21 January)

Event Time Altitude Azimuth Distance (km) Brightness Sun altitude
Rises 12:50:09 0° 7° (N) 3,349 7.3 -21.1°
Reaches altitude 10° 12:52:32 10° 4° (N) 2,414 6.5 -20.6°
Maximum altitude 12:57:46 59° 286° (WNW) 937 4.1 -19.5°
Drops below altitude 10° 13:02:59 10° 208° (SSW) 2,401 6.4 -18.5°
Sets 13:05:21 0° 204° (SSW) 3,330 7.2 -18.0°
